This is the latest recevied weather packets stored in our database for station/object VK3BKO-13. If no packets are shown the sender has not sent any weather packets the latest 10 day(s).
| Time | Temp. | Humidity | Pressure | Rain* | Wind** | Luminosity | Snow |
|---|---|---|---|---|---|---|---|
| 1777909624 | 14.44° C | 73% | 1013.6 hPa | 0 mm | - | 0 W/m² | - |
| 1777908724 | 14.44° C | 73% | 1013.6 hPa | 0 mm | - | 0 W/m² | - |
| 1777907824 | 14.44° C | 73% | 1013.6 hPa | 0 mm | - | 0 W/m² | - |
| 1777906923 | 14.44° C | 73% | 1013.6 hPa | 0 mm | - | 0 W/m² | - |
| 1777906024 | 14.44° C | 73% | 1013.2 hPa | 0 mm | - | 0 W/m² | - |
| 1777905124 | 14.44° C | 73% | 1013.2 hPa | 0 mm | - | 0 W/m² | - |
| 1777904224 | 15° C | 73% | 1012.9 hPa | 0 mm | - | 0 W/m² | - |
| 1777903324 | 15° C | 72% | 1012.9 hPa | 0 mm | - | 0 W/m² | - |
| 1777902425 | 15° C | 72% | 1012.9 hPa | 0 mm | - | 0 W/m² | - |
| 1777901524 | 15° C | 72% | 1012.9 hPa | 0 mm | - | 0 W/m² | - |
| 1777900627 | 15° C | 72% | 1012.9 hPa | 0 mm | - | 0 W/m² | - |
| 1777899723 | 15° C | 72% | 1012.9 hPa | 0 mm | - | 0 W/m² | - |
| 1777898824 | 15° C | 73% | 1012.2 hPa | 0 mm | - | 0 W/m² | - |
| 1777897924 | 15° C | 75% | 1012.6 hPa | 0 mm | - | 0 W/m² | - |
| 1777897024 | 15° C | 75% | 1012.6 hPa | 0 mm | - | 0 W/m² | - |
| 1777896124 | 15° C | 76% | 1012.2 hPa | 0 mm | - | 0 W/m² | - |
| 1777895224 | 14.44° C | 79% | 1011.9 hPa | 0.25 mm | - | 0 W/m² | - |
| 1777894324 | 14.44° C | 81% | 1012.2 hPa | 0.25 mm | - | 0 W/m² | - |
| 1777893424 | 15° C | 78% | 1011.9 hPa | 0 mm | - | 0 W/m² | - |
| 1777892525 | 15.56° C | 74% | 1011.2 hPa | 0 mm | - | 0 W/m² | - |
| 1777891623 | 15° C | 75% | 1011.2 hPa | 0 mm | - | 0 W/m² | - |
| 1777890724 | 15° C | 76% | 1010.9 hPa | 0 mm | - | 0 W/m² | - |
| 1777889824 | 15° C | 76% | 1010.9 hPa | 0 mm | - | 0 W/m² | - |
| 1777888924 | 15° C | 75% | 1010.5 hPa | 0 mm | - | 0 W/m² | - |
| 1777888023 | 15° C | 75% | 1010.5 hPa | 0 mm | - | 0 W/m² | - |
* Rain latest hour (hover to see other rain measurements)
** Current wind speed in m/s (hover to see current wind gust speed)